Total_Precipitation_Accumulation
0.00 0.00 0.00 0.00 0.00 0.00 0.00 0.00 0.00 0.00 0.00 0.00 0.00 0.00 0.00 0.03 0.08 0.04 0.10 0.20 0.16 0.11 0.09 0.08 0.10 0.11 0.11 0.09 0.10 0.14 0.12 0.12 0.15 0.26 0.14 0.07 0.14 0.15 0.12 0.14 0.13 0.07 0.08
0.00 0.00 0.00 0.00 0.00 0.00 0.00 0.00 0.00 0.00 0.00 0.00 0.00 0.00 0.00 0.00 0.02 0.06 0.06 0.19 0.26 0.15 0.08 0.12 0.13 0.16 0.17 0.22 0.12 0.09 0.07 0.08 0.17 0.23 0.18 0.09 0.08 0.08 0.11 0.07 0.08 0.06 0.10
0.00 0.00 0.00 0.00 0.00 0.00 0.00 0.00 0.00 0.00 0.00 0.00 0.00 0.00 0.00 0.00 0.02 0.07 0.12 0.11 0.39 0.20 0.11 0.20 0.24 0.22 0.21 0.21 0.17 0.14 0.11 0.08 0.09 0.26 0.24 0.17 0.08 0.07 0.05 0.06 0.06 0.05 0.04
0.00 0.00 0.00 0.00 0.00 0.00 0.00 0.00 0.00 0.00 0.00 0.00 0.00 0.00 0.00 0.00 0.01 0.05 0.11 0.17 0.35 0.27 0.22 0.27 0.26 0.23 0.18 0.16 0.15 0.15 0.14 0.20 0.12 0.22 0.26 0.17 0.11 0.13 0.10 0.10 0.14 0.16 0.11
0.00 0.00 0.00 0.00 0.00 0.00 0.00 0.00 0.00 0.00 0.00 0.00 0.00 0.00 0.00 0.00 0.00 0.00 0.07 0.24 0.34 0.59 0.41 0.37 0.45 0.36 0.23 0.19 0.18 0.16 0.18 0.20 0.19 0.13 0.16 0.19 0.12 0.06 0.07 0.07 0.08 0.12 0.11
0.00 0.00 0.00 0.00 0.00 0.00 0.00 0.00 0.00 0.00 0.00 0.00 0.00 0.00 0.00 0.00 0.00 0.00 0.01 0.14 0.31 0.33 0.51 0.97 0.92 0.81 0.74 0.57 0.47 0.30 0.18 0.16 0.22 0.21 0.16 0.09 0.07 0.03 0.03 0.05 0.05 0.04 0.06
0.00 0.00 0.00 0.00 0.00 0.00 0.00 0.00 0.00 0.00 0.00 0.00 0.00 0.00 0.00 0.00 0.00 0.01 0.01 0.06 0.28 0.53 0.32 0.56 1.01 1.05 1.05 0.88 0.77 0.93 0.88 0.59 0.39 0.27 0.31 0.25 0.14 0.08 0.09 0.10 0.09 0.07 0.07
0.00 0.00 0.00 0.00 0.00 0.00 0.00 0.01 0.01 0.00 0.00 0.00 0.00 0.00 0.00 0.01 0.01 0.03 0.04 0.04 0.14 0.62 0.94 0.67 0.59 0.68 0.63 0.86 0.82 0.72 0.88 0.94 0.83 0.82 0.71 0.66 0.60 0.39 0.18 0.13 0.13 0.11 0.09
0.00 0.00 0.00 0.00 0.00 0.00 0.01 0.04 0.08 0.04 0.02 0.02 0.02 0.01 0.01 0.02 0.04 0.08 0.17 0.10 0.19 0.27 1.07 1.49 1.33 1.22 1.24 0.80 0.78 0.72 0.47 0.61 0.68 0.62 0.86 0.80 0.74 0.76 0.68 0.49 0.28 0.18 0.14
0.00 0.00 0.00 0.00 0.00 0.00 0.01 0.06 0.10 0.08 0.07 0.06 0.07 0.09 0.04 0.03 0.07 0.09 0.30 0.59 0.36 0.53 0.53 0.83 1.35 1.60 1.56 1.63 1.27 1.06 0.64 0.50 0.53 0.51 0.46 0.52 0.66 0.72 0.62 0.61 0.44 0.47 0.34
0.00 0.00 0.00 0.00 0.00 0.00 0.00 0.04 0.08 0.07 0.06 0.06 0.11 0.08 0.07 0.09 0.19 0.25 0.52 0.64 0.54 0.44 0.66 0.46 0.40 0.75 0.93 1.45 1.52 1.10 0.85 0.70 0.51 0.47 0.50 0.44 0.40 0.52 0.47 0.42 0.49 0.47 0.41
0.00 0.00 0.00 0.00 0.00 0.00 0.00 0.01 0.03 0.03 0.04 0.08 0.16 0.20 0.18 0.20 0.36 0.48 0.52 1.08 1.23 0.69 0.56 0.49 0.23 0.15 0.29 0.52 1.37 1.28 0.92 0.83 0.67 0.49 0.40 0.40 0.33 0.28 0.41 0.45 0.34 0.47 0.40
0.00 0.00 0.00 0.00 0.00 0.01 0.01 0.01 0.01 0.00 0.01 0.03 0.15 0.33 0.44 0.40 0.43 0.54 0.47 0.71 1.15 0.83 1.08 0.71 0.45 0.27 0.15 0.21 0.50 1.22 1.39 0.81 0.64 0.51 0.34 0.21 0.27 0.21 0.20 0.31 0.36 0.29 0.30
0.00 0.00 0.00 0.00 0.00 0.01 0.04 0.01 0.00 0.00 0.00 0.00 0.03 0.10 0.24 0.42 0.61 0.71 0.73 0.96 0.92 1.31 1.58 1.86 0.89 0.46 0.44 0.43 0.41 0.49 0.91 1.17 0.68 0.61 0.48 0.25 0.17 0.20 0.20 0.19 0.25 0.24 0.26
0.00 0.00 0.00 0.00 0.00 0.01 0.04 0.05 0.01 0.00 0.00 0.00 0.00 0.01 0.03 0.08 0.10 0.20 0.48 0.75 1.01 1.36 1.67 1.92 1.51 0.87 0.78 0.74 0.53 0.43 0.44 0.77 1.00 0.69 0.51 0.40 0.23 0.15 0.18 0.35 0.40 0.33 0.33
0.00 0.00 0.00 0.00 0.00 0.00 0.01 0.05 0.04 0.02 0.00 0.00 0.00 0.00 0.00 0.00 0.01 0.03 0.05 0.09 0.21 0.42 0.69 1.06 1.75 1.70 1.22 1.06 0.86 0.54 0.42 0.44 0.62 1.06 0.86 0.41 0.36 0.35 0.31 0.30 0.32 0.42 0.48
0.00 0.00 0.00 0.01 0.01 0.00 0.00 0.00 0.02 0.04 0.01 0.00 0.00 0.00 0.00 0.00 0.00 0.00 0.00 0.00 0.01 0.04 0.19 0.37 0.63 1.01 1.05 1.50 1.40 1.36 0.68 0.50 0.47 0.54 1.14 1.04 0.51 0.60 0.56 0.52 0.55 0.51 0.52
0.01 0.02 0.03 0.02 0.00 0.00 0.00 0.00 0.00 0.01 0.01 0.00 0.00 0.01 0.05 0.03 0.01 0.00 0.01 0.02 0.02 0.06 0.05 0.15 0.31 0.36 0.48 0.95 1.24 1.61 1.71 1.06 0.73 0.66 0.62 0.86 1.13 0.92 0.93 0.85 0.61 0.44 0.44
0.02 0.03 0.01 0.00 0.00 0.00 0.00 0.00 0.00 0.00 0.00 0.01 0.02 0.02 0.05 0.09 0.08 0.07 0.10 0.10 0.10 0.10 0.07 0.06 0.10 0.18 0.24 0.42 0.69 1.03 1.44 1.41 1.46 0.96 0.79 0.92 0.93 1.43 1.15 0.91 0.86 0.65 0.59
0.00 0.00 0.00 0.00 0.00 0.00 0.00 0.00 0.00 0.00 0.00 0.01 0.01 0.02 0.02 0.01 0.01 0.03 0.07 0.13 0.11 0.10 0.10 0.14 0.16 0.18 0.18 0.25 0.44 0.87 1.18 1.18 1.33 1.99 1.41 1.12 1.16 1.29 1.56 1.16 0.98 1.16 1.01
0.00 0.00 0.00 0.00 0.00 0.00 0.00 0.00 0.00 0.00 0.00 0.00 0.00 0.00 0.01 0.01 0.00 0.00 0.00 0.06 0.16 0.23 0.16 0.15 0.16 0.16 0.20 0.30 0.48 0.63 1.06 1.56 1.29 1.13 1.42 1.19 1.18 1.40 1.34 1.24 1.20 1.08 0.93
0.00 0.00 0.00 0.00 0.00 0.00 0.00 0.00 0.00 0.00 0.00 0.00 0.00 0.00 0.01 0.01 0.01 0.00 0.00 0.00 0.00 0.03 0.10 0.16 0.25 0.27 0.25 0.29 0.43 0.63 0.77 0.95 1.24 1.38 1.23 1.21 1.08 0.98 1.11 1.13 0.78 0.91 0.95
0.00 0.00 0.00 0.00 0.00 0.00 0.00 0.00 0.00 0.00 0.00 0.00 0.00 0.00 0.01 0.01 0.01 0.01 0.01 0.01 0.01 0.02 0.02 0.01 0.03 0.08 0.17 0.28 0.34 0.51 0.62 0.82 0.85 1.07 1.44 1.19 1.21 0.96 0.90 0.99 0.96 0.69 0.68
0.00 0.00 0.00 0.00 0.00 0.00 0.00 0.01 0.00 0.00 0.00 0.00 0.00 0.00 0.01 0.01 0.02 0.02 0.02 0.03 0.05 0.05 0.04 0.05 0.06 0.03 0.03 0.08 0.17 0.39 0.43 0.46 0.54 0.80 1.03 1.47 1.26 1.17 1.02 0.93 0.82 0.86 0.85
0.00 0.00 0.00 0.00 0.00 0.00 0.00 0.00 0.00 0.01 0.02 0.00 0.00 0.01 0.02 0.01 0.03 0.07 0.09 0.07 0.10 0.19 0.23 0.23 0.18 0.24 0.27 0.32 0.22 0.24 0.40 0.67 0.72 0.78 0.73 0.79 1.02 1.17 1.12 0.98 0.88 0.89 1.13
0.00 0.00 0.00 0.00 0.00 0.00 0.01 0.01 0.01 0.03 0.05 0.03 0.03 0.04 0.03 0.02 0.02 0.04 0.08 0.08 0.07 0.03 0.08 0.13 0.18 0.17 0.24 0.14 0.12 0.12 0.13 0.20 0.43 0.55 0.81 0.82 0.82 1.00 1.32 1.30 1.12 1.10 1.13